Regional Weather Roundup
Issued by NWS

Home | Current Version | Previous Version | Graphics & Text | Print | Product List | Glossary On
Versions: 1 2 3 4 5 6 7 8 9 10 11 12 13 14 15 16 17 18 19 20 21 22 23 24 25 26 27 28 29 30 31 32 33 34 35 36 37 38 39 40 41 42 43 44 45 46 47 48 49 50
000
ASUS45 KCYS 290510
RWRWY

WYOMING REGIONAL WEATHER ROUNDUP
NATIONAL WEATHER SERVICE CHEYENNE WY
1100 PM MDT WED JUN 28 2017

NOTE:  "FAIR" INDICATES FEW OR NO CLOUDS BELOW 12,000 FEET
WITH NO SIGNIFICANT WEATHER AND/OR OBSTRUCTIONS TO VISIBILITY.

WYZ001-290600-
YELLOWSTONE NATIONAL PARK

CITY           SKY/WX    TMP DP  RH WIND       PRES   REMARKS
LK YELLOWSTONE   N/A     40  40 100 CALM      30.15S
W YELLOWSTONE  NOT AVBL

$$
WYZ002>013-054>058-071-098>099-290600-
NORTHERN WYOMING

CITY           SKY/WX    TMP DP  RH WIND       PRES   REMARKS
JACKSON        FAIR      45  43  93 N8        30.09R
CODY           CLOUDY    59  39  47 W10G18    29.95R
GREYBULL       FAIR      57  51  80 S6        29.91R
WORLAND        FAIR      55  49  80 SE6       29.94R
SHERIDAN       CLOUDY    55  50  83 SW10      29.92R
BUFFALO        CLOUDY    57  43  59 NW16G25   29.95R
GILLETTE       MOCLDY    57  54  89 W6        29.92R
NEWCASTLE      FAIR      61  43  51 CALM      29.86R

$$
WYZ014>020-022>026-101>103-290600-
CENTRAL WYOMING

CITY           SKY/WX    TMP DP  RH WIND       PRES   REMARKS
BIG PINEY      FAIR      44  41  89 CALM      30.10R
PINEDALE       FAIR      41  39  93 NW6       30.10R
DUBOIS         FAIR      45  36  70 W10       30.08F
LANDER         FAIR      54  37  52 W9        30.01R
RIVERTON       FAIR      52  45  77 N5        30.00R
CASPER         FAIR      57  47  69 N10       29.96R
DOUGLAS        FAIR      59  43  55 NW6       29.92R

$$
WYZ021-027>030-104>119-290600-
SOUTHERN WYOMING

CITY           SKY/WX    TMP DP  RH WIND       PRES   REMARKS
EVANSTON       CLOUDY    58  40  51 N5        30.10R
KEMMERER         N/A     52  37  58 NW6       30.10S
FORT BRIDGER   FAIR      53  38  55 SE8       30.13R
ROCK SPRINGS   FAIR      52  35  52 S5        30.07S
DIXON          FAIR      59  30  33 N9        30.06R
RAWLINS        FAIR      60  30  32 NW10      30.04R
SARATOGA       FAIR      59  32  36 W8        30.06R
LARAMIE        FAIR      57  34  41 W7        30.06R
CHEYENNE       FAIR      69  35  28 NW5       29.98R
TORRINGTON     FAIR      71  44  37 NE8       29.83R
PINE BLUFFS    MOCLDY    61  50  67 NW8G16    29.97R THUNDER

$$



USA.gov is the U.S. government's official web portal to all federal, state and local government web resources and services.